Weather in Monastyryshche

Ukraine / Chernihiv Region     50°48′42″N   32°09′39″E
temp.,
°C
wind,
m/s
gust,
m/s
humid.,
%
clouds,
%
prec.,
mm/h
press.,
hPa
HPBL,
m
24 may, tue
tue2400:00+7nw22755 0.0 101113
03:00+6nnw33825 0.0 101137
06:00+6nnw36835 0.0 1012123
09:00+12nnw45570 0.0 1012496
12:00+16nnw56470 0.0 10121960
15:00+17nnw4546100 0.0 10132240
18:00+15nw466959 0.6 1014641
21:00+11nw2278100 0.7 101513
25 may, wed
wed2500:00+9wnw338240 0.0 101629
03:00+8wnw33864 0.0 101732
06:00+8wnw34845 0.0 101861
09:00+14w346696 0.0 1018311
12:00+18wnw3352100 0.0 10181119
15:00+19wsw3350100 0.0 10181432
18:00+19wsw355797 0.0 1017497
21:00+13s3361100 0.0 101720
26 may, thu
thu2600:00+11s477553 0.0 101692
03:00+13ssw41071100 0.1 1015326
06:00+12sse71588100 1.3 1012441
09:00+10ssw71396100 6.0 1010621
12:00+13w61296100 2.0 1009836
15:00+16nw10167718 2.3 10111457
18:00+17nw614674 0.1 10111769
21:00+12w37876 0.1 101399
27 may, fri
fri2700:00+11wsw411886 0.0 1013204
03:00+11wsw6148653 0.0 1013374
06:00+11w614895 0.0 1013473
09:00+16w797515 0.0 1013859
12:00+18w7105953 0.1 10121804
15:00+19w596299 0.1 10121690
18:00+19wsw4106672 0.0 10101468
21:00+17sw6147022 0.0 1008509
28 may, sat
sat2800:00+15wsw51585100 0.4 1007540
03:00+12wnw51396100 4.7 1007984
06:00+11wsw4994100 1.5 1008512
09:00+13w697813 1.7 1008989
12:00+16w8115656 0.0 10091934
15:00+17wsw8125094 0.1 10092595
18:00+15w6116092 0.3 10101556
21:00+10wsw3573100 0.4 101178